{"data":{"norad_id":62826,"intl_designator":"2025-018W","name":"STARLINK-32704","alt_names":[],"object_type":"PAYLOAD","status":"ACTIVE","operator":null,"country":"US","launch_date":"2025-01-24","launch_site_code":"AFWTR","launch_vehicle":null,"mission":null,"orbit_class":"UNKNOWN","rcs_meters":null,"size_class":null,"mass_kg":null,"dimensions":null,"purposes":["comms"],"wikipedia_slug":null,"has_3d_model":false,"image_url":null,"decayed_at":null,"tle_current":{"epoch":"2026-05-25T04:07:52.624704Z","epoch_age_seconds":60244,"freshness":"FRESH","line1":"1 62826U 25018W   26145.17213686  .00078795  00000+0  21940-2 0  9995","line2":"2 62826  53.1562 313.2627 0003621 267.0572  93.0017 15.36131536 74895","mean_motion":15.36131536,"eccentricity":0.0003621,"inclination_deg":53.1562,"raan_deg":313.2627,"arg_perigee_deg":267.0572,"mean_anomaly_deg":93.0017,"bstar":0.002194,"rev_number":7489,"period_min":93.741972367137,"perigee_km":455.08637875177,"apogee_km":460.03679166717,"semimajor_km":6835.6985852095,"source":"CELESTRAK","updated_at":"2026-05-25T13:38:19.777108Z"}}}